Time,TemperatureF,DewpointF,PressureIn,WindDirection,WindDirectionDegrees,WindSpeedMPH,WindSpeedGustMPH,Humidity,HourlyPrecipIn,Conditions,Clouds,dailyrainin,SoftwareType,DateUTC
2013-03-23 00:14:00,42.9,38.0,30.07,WSW,256,0.0,0.0,83,0.00,,,0.00,weatherlink.com 1.10,2013-03-23 04:14:00,
2013-03-23 00:29:00,41.8,38.0,30.07,WSW,256,0.0,0.0,85,0.00,,,0.00,weatherlink.com 1.10,2013-03-23 04:29:00,
2013-03-23 00:45:00,40.8,37.0,30.07,WSW,256,0.0,0.0,86,0.00,,,0.00,weatherlink.com 1.10,2013-03-23 04:45:00,
2013-03-23 01:00:00,40.1,37.0,30.07,WSW,256,0.0,0.0,88,0.00,,,0.00,weatherlink.com 1.10,2013-03-23 05:00:00,
2013-03-23 01:15:00,39.6,37.0,30.07,WSW,256,0.0,0.0,89,0.00,,,0.00,weatherlink.com 1.10,2013-03-23 05:15:00,
2013-03-23 01:30:00,39.0,36.0,30.07,WSW,256,0.0,0.0,90,0.00,,,0.00,weatherlink.com 1.10,2013-03-23 05:30:00,
2013-03-23 01:45:00,38.5,36.0,30.07,WSW,256,0.0,0.0,91,0.00,,,0.00,weatherlink.com 1.10,2013-03-23 05:45:00,
2013-03-23 02:00:00,38.1,36.0,30.07,WSW,256,0.0,0.0,91,0.00,,,0.00,weatherlink.com 1.10,2013-03-23 06:00:00,
2013-03-23 02:15:00,37.7,36.0,30.07,WSW,256,0.0,0.0,92,0.00,,,0.00,weatherlink.com 1.10,2013-03-23 06:15:00,
2013-03-23 02:30:00,37.4,35.0,30.06,WSW,256,0.0,0.0,92,0.00,,,0.00,weatherlink.com 1.10,2013-03-23 06:30:00,
2013-03-23 02:45:00,37.1,35.0,30.07,WSW,256,0.0,0.0,93,0.00,,,0.00,weatherlink.com 1.10,2013-03-23 06:45:00,
2013-03-23 03:00:00,36.7,35.0,30.06,WSW,256,0.0,0.0,93,0.00,,,0.00,weatherlink.com 1.10,2013-03-23 07:00:00,
2013-03-23 03:15:00,36.3,35.0,30.06,WSW,256,0.0,0.0,93,0.00,,,0.00,weatherlink.com 1.10,2013-03-23 07:15:00,
2013-03-23 03:30:00,36.3,35.0,30.05,WSW,256,0.0,0.0,94,0.00,,,0.00,weatherlink.com 1.10,2013-03-23 07:30:00,
2013-03-23 03:45:00,36.2,35.0,30.05,WSW,256,0.0,0.0,94,0.00,,,0.00,weatherlink.com 1.10,2013-03-23 07:45:00,
2013-03-23 04:00:00,36.2,35.0,30.05,WSW,256,0.0,0.0,94,0.00,,,0.00,weatherlink.com 1.10,2013-03-23 08:00:00,
2013-03-23 04:15:00,36.2,35.0,30.05,WSW,256,0.0,0.0,95,0.00,,,0.00,weatherlink.com 1.10,2013-03-23 08:15:00,
2013-03-23 04:30:00,36.6,35.0,30.05,WSW,256,0.0,1.0,95,0.00,,,0.00,weatherlink.com 1.10,2013-03-23 08:30:00,
2013-03-23 05:00:00,36.4,35.0,30.03,West,259,0.0,0.0,95,0.00,,,0.00,weatherlink.com 1.10,2013-03-23 09:00:00,
2013-03-23 05:15:00,36.4,35.0,30.03,West,259,0.0,0.0,95,0.00,,,0.00,weatherlink.com 1.10,2013-03-23 09:15:00,
2013-03-23 05:30:00,36.2,35.0,30.04,West,259,0.0,0.0,95,0.00,,,0.00,weatherlink.com 1.10,2013-03-23 09:30:00,
2013-03-23 05:45:00,35.8,35.0,30.04,West,259,0.0,0.0,95,0.00,,,0.00,weatherlink.com 1.10,2013-03-23 09:45:00,
2013-03-23 06:00:00,35.5,34.0,30.04,West,259,0.0,0.0,95,0.00,,,0.00,weatherlink.com 1.10,2013-03-23 10:00:00,
2013-03-23 06:15:00,35.4,34.0,30.04,West,259,0.0,0.0,95,0.00,,,0.00,weatherlink.com 1.10,2013-03-23 10:15:00,
2013-03-23 06:30:00,35.5,35.0,30.03,North,356,0.0,0.0,96,0.00,,,0.00,weatherlink.com 1.10,2013-03-23 10:30:00,
2013-03-23 06:45:00,35.6,35.0,30.03,North,356,0.0,0.0,96,0.00,,,0.00,weatherlink.com 1.10,2013-03-23 10:45:00,
2013-03-23 07:00:00,36.2,35.0,30.05,North,356,0.0,0.0,96,0.00,,,0.00,weatherlink.com 1.10,2013-03-23 11:00:00,
2013-03-23 07:15:00,36.7,36.0,30.05,North,355,0.0,0.0,96,0.00,,,0.00,weatherlink.com 1.10,2013-03-23 11:15:00,
2013-03-23 07:30:00,37.2,36.0,30.04,North,356,0.0,0.0,96,0.00,,,0.00,weatherlink.com 1.10,2013-03-23 11:30:00,
2013-03-23 07:45:00,38.0,37.0,30.04,NW,307,0.0,0.0,96,0.00,,,0.00,weatherlink.com 1.10,2013-03-23 11:45:00,
2013-03-23 08:00:00,39.2,39.0,30.04,NW,307,0.0,0.0,97,0.00,,,0.00,weatherlink.com 1.10,2013-03-23 12:00:00,
2013-03-23 08:15:00,40.1,39.0,30.05,NW,307,0.0,0.0,97,0.00,,,0.00,weatherlink.com 1.10,2013-03-23 12:15:00,
2013-03-23 08:30:00,41.0,40.0,30.04,NW,307,0.0,0.0,96,0.00,,,0.00,weatherlink.com 1.10,2013-03-23 12:30:00,
2013-03-23 08:45:00,42.0,41.0,30.04,NW,307,0.0,0.0,96,0.00,,,0.00,weatherlink.com 1.10,2013-03-23 12:45:00,
2013-03-23 09:00:00,43.8,43.0,30.04,NW,311,0.0,0.0,96,0.00,,,0.00,weatherlink.com 1.10,2013-03-23 13:00:00,
2013-03-23 09:15:00,45.9,44.0,30.05,NW,321,0.0,0.0,93,0.00,,,0.00,weatherlink.com 1.10,2013-03-23 13:15:00,
2013-03-23 09:30:00,48.1,43.0,30.05,East,93,0.0,0.0,83,0.00,,,0.00,weatherlink.com 1.10,2013-03-23 13:30:00,
2013-03-23 09:46:00,49.1,43.0,30.07,North,1,0.0,0.0,78,0.00,,,0.00,weatherlink.com 1.10,2013-03-23 13:46:00,
2013-03-23 10:01:00,49.1,42.0,30.07,North,1,0.0,0.0,76,0.00,,,0.00,weatherlink.com 1.10,2013-03-23 14:01:00,
2013-03-23 10:16:00,48.5,41.0,30.06,North,360,0.0,2.0,75,0.00,,,0.00,weatherlink.com 1.10,2013-03-23 14:16:00,
2013-03-23 10:31:00,48.1,41.0,30.07,NW,321,1.0,2.0,75,0.00,,,0.00,weatherlink.com 1.10,2013-03-23 14:31:00,
2013-03-23 10:46:00,47.9,39.0,30.07,North,11,0.0,3.0,71,0.00,,,0.00,weatherlink.com 1.10,2013-03-23 14:46:00,
2013-03-23 11:01:00,47.7,38.0,30.07,NE,46,2.0,3.0,70,0.00,,,0.00,weatherlink.com 1.10,2013-03-23 15:01:00,
2013-03-23 11:16:00,47.2,38.0,30.07,East,101,8.0,8.0,70,0.00,,,0.00,weatherlink.com 1.10,2013-03-23 15:16:00,
2013-03-23 11:31:00,46.8,39.0,30.06,WNW,294,0.0,6.0,73,0.00,,,0.00,weatherlink.com 1.10,2013-03-23 15:31:00,
2013-03-23 12:01:00,45.3,39.0,30.08,NW,322,2.0,4.0,79,0.00,,,0.00,weatherlink.com 1.10,2013-03-23 16:01:00,
2013-03-23 12:16:00,43.9,40.0,30.07,ENE,72,1.0,4.0,86,0.00,,,0.00,weatherlink.com 1.10,2013-03-23 16:16:00,
2013-03-23 12:31:00,43.5,41.0,30.06,NNE,20,0.0,1.0,89,0.00,,,0.00,weatherlink.com 1.10,2013-03-23 16:31:00,
2013-03-23 13:31:00,43.8,43.0,30.05,NW,323,0.0,3.0,95,0.18,,,0.18,weatherlink.com 1.10,2013-03-23 17:31:00,
2013-03-23 13:46:00,43.9,43.0,30.04,East,97,1.0,2.0,95,0.21,,,0.23,weatherlink.com 1.10,2013-03-23 17:46:00,
2013-03-23 14:01:00,44.7,44.0,30.04,NW,321,1.0,2.0,96,0.14,,,0.25,weatherlink.com 1.10,2013-03-23 18:01:00,
2013-03-23 14:46:00,44.8,44.0,30.01,ESE,111,1.0,3.0,96,0.04,,,0.27,weatherlink.com 1.10,2013-03-23 18:46:00,
2013-03-23 15:16:00,45.2,44.0,29.95,East,99,8.0,9.0,96,0.02,,,0.28,weatherlink.com 1.10,2013-03-23 19:16:00,
2013-03-23 15:31:00,45.9,45.0,29.95,WNW,292,3.0,8.0,96,0.01,,,0.28,weatherlink.com 1.10,2013-03-23 19:31:00,
2013-03-23 16:01:00,47.0,46.0,29.96,East,101,4.0,15.0,95,0.00,,,0.28,weatherlink.com 1.10,2013-03-23 20:01:00,
2013-03-23 16:16:00,47.0,45.0,29.96,NE,53,4.0,8.0,94,0.00,,,0.28,weatherlink.com 1.10,2013-03-23 20:16:00,
2013-03-23 16:31:00,47.5,46.0,29.95,East,83,1.0,8.0,94,0.00,,,0.28,weatherlink.com 1.10,2013-03-23 20:31:00,
2013-03-23 16:46:00,47.5,45.0,29.95,NE,49,2.0,7.0,92,0.00,,,0.28,weatherlink.com 1.10,2013-03-23 20:46:00,
2013-03-23 17:01:00,48.0,46.0,29.94,NW,316,4.0,10.0,91,0.00,,,0.28,weatherlink.com 1.10,2013-03-23 21:01:00,
2013-03-23 17:16:00,48.0,46.0,29.93,East,96,3.0,7.0,91,0.00,,,0.28,weatherlink.com 1.10,2013-03-23 21:16:00,
2013-03-23 17:31:00,48.1,46.0,29.93,NE,49,0.0,7.0,91,0.00,,,0.28,weatherlink.com 1.10,2013-03-23 21:31:00,
2013-03-23 17:46:00,48.2,46.0,29.93,NE,49,2.0,9.0,90,0.00,,,0.28,weatherlink.com 1.10,2013-03-23 21:46:00,
2013-03-23 18:01:00,48.4,45.0,29.93,NE,39,3.0,9.0,89,0.00,,,0.28,weatherlink.com 1.10,2013-03-23 22:01:00,
2013-03-23 18:16:00,48.5,46.0,29.93,SSE,154,0.0,6.0,89,0.00,,,0.28,weatherlink.com 1.10,2013-03-23 22:16:00,
2013-03-23 18:31:00,48.8,46.0,29.93,ESE,105,1.0,6.0,89,0.00,,,0.28,weatherlink.com 1.10,2013-03-23 22:31:00,
2013-03-23 18:46:00,49.0,45.0,29.93,East,79,4.0,5.0,87,0.00,,,0.28,weatherlink.com 1.10,2013-03-23 22:46:00,
2013-03-23 19:01:00,49.0,45.0,29.95,East,94,2.0,3.0,87,0.00,,,0.28,weatherlink.com 1.10,2013-03-23 23:01:00,
2013-03-23 19:16:00,49.1,46.0,29.96,SE,134,0.0,2.0,88,0.00,,,0.28,weatherlink.com 1.10,2013-03-23 23:16:00,
2013-03-23 19:31:00,49.1,46.0,29.96,NE,37,0.0,2.0,89,0.00,,,0.28,weatherlink.com 1.10,2013-03-23 23:31:00,
2013-03-23 20:01:00,48.7,46.0,29.97,SW,221,0.0,1.0,91,0.00,,,0.28,weatherlink.com 1.10,2013-03-24 00:01:00,
2013-03-23 20:16:00,48.9,47.0,29.98,SW,221,0.0,0.0,92,0.00,,,0.28,weatherlink.com 1.10,2013-03-24 00:16:00,
2013-03-23 20:31:00,48.7,47.0,29.99,SW,221,0.0,0.0,92,0.00,,,0.28,weatherlink.com 1.10,2013-03-24 00:31:00,
2013-03-23 21:01:00,48.4,47.0,29.99,SW,221,0.0,0.0,93,0.00,,,0.28,weatherlink.com 1.10,2013-03-24 01:01:00,
2013-03-23 21:16:00,48.3,46.0,29.98,SW,221,0.0,0.0,93,0.00,,,0.28,weatherlink.com 1.10,2013-03-24 01:16:00,
2013-03-23 21:31:00,48.1,46.0,29.97,ESE,105,0.0,1.0,93,0.00,,,0.28,weatherlink.com 1.10,2013-03-24 01:31:00,
2013-03-23 21:46:00,47.5,46.0,29.97,ESE,105,0.0,1.0,94,0.00,,,0.28,weatherlink.com 1.10,2013-03-24 01:46:00,
2013-03-23 22:01:00,47.2,46.0,29.97,ESE,105,0.0,1.0,94,0.00,,,0.28,weatherlink.com 1.10,2013-03-24 02:01:00,
2013-03-23 22:16:00,47.4,46.0,29.96,East,99,0.0,1.0,95,0.00,,,0.28,weatherlink.com 1.10,2013-03-24 02:16:00,
2013-03-23 22:31:00,47.6,46.0,29.95,East,100,0.0,1.0,95,0.00,,,0.28,weatherlink.com 1.10,2013-03-24 02:31:00,
2013-03-23 22:46:00,47.9,47.0,29.95,East,99,0.0,1.0,95,0.00,,,0.28,weatherlink.com 1.10,2013-03-24 02:46:00,
2013-03-23 23:01:00,48.7,47.0,29.95,NNE,25,0.0,4.0,95,0.00,,,0.28,weatherlink.com 1.10,2013-03-24 03:01:00,
2013-03-23 23:16:00,50.5,48.0,29.93,East,101,2.0,5.0,90,0.00,,,0.28,weatherlink.com 1.10,2013-03-24 03:16:00,
2013-03-23 23:31:00,51.2,48.0,29.93,ENE,77,3.0,5.0,87,0.00,,,0.28,weatherlink.com 1.10,2013-03-24 03:31:00,
2013-03-23 23:46:00,51.4,47.0,29.93,ENE,75,2.0,6.0,86,0.00,,,0.28,weatherlink.com 1.10,2013-03-24 03:46:00,